Overview Statistics Trail Chart Weather Telemetry Raw packets
 

This is the latest recevied weather packets stored in our database for station/object S56VIL-11. If no packets are shown the sender has not sent any weather packets the latest 10 day(s).

<< 19 20 21 22 23 24 25 >>
Time Temp. Humidity Pressure Rain* Wind** Luminosity Snow
1788163305 23.33° C 63% 1029.9 hPa - - - -
1788162404 23.33° C 63% 1029.9 hPa - - - -
1788161504 22.22° C 63% 1029.8 hPa - - - -
1788160604 21.67° C 64% 1029.8 hPa - - - -
1788159704 21.67° C 64% 1029.8 hPa - - - -
1788158804 21.11° C 64% 1029.7 hPa - - - -
1788157904 21.11° C 64% 1029.5 hPa - - - -
1788157010 21.67° C 63% 1029.5 hPa - - - -
1788156104 21.11° C 64% 1029.3 hPa - - - -
1788155210 21.11° C 63% 1029.4 hPa - - - -
1788154306 20° C 64% 1029.4 hPa - - - -
1788153404 20° C 64% 1029.3 hPa - - - -
1788152504 19.44° C 64% 1029.4 hPa - - - -
1788151604 19.44° C 64% 1029.3 hPa - - - -
1788150704 18.89° C 64% 1029.3 hPa - - - -
1788149804 18.89° C 64% 1029.4 hPa - - - -
1788148904 18.89° C 64% 1029.4 hPa - - - -
1788148004 19.44° C 64% 1029.4 hPa - - - -
1788147104 19.44° C 64% 1029.4 hPa - - - -
1788146218 19.44° C 63% 1029.5 hPa - - - -
1788145303 18.89° C 64% 1029.5 hPa - - - -
1788144403 18.89° C 64% 1029.7 hPa - - - -
1788143503 18.89° C 64% 1029.7 hPa - - - -
1788142603 19.44° C 63% 1029.6 hPa - - - -
1788141703 19.44° C 63% 1029.6 hPa - - - -

* Rain since midnight (hover to see other rain measurements)
** Current wind speed in m/s (hover to see current wind gust speed)